Time,TemperatureF,DewpointF,PressureIn,WindDirection,WindDirectionDegrees,WindSpeedMPH,WindSpeedGustMPH,Humidity,HourlyPrecipIn,Conditions,Clouds,dailyrainin,SoftwareType,DateUTC
2013-05-22 00:02:00,68.8,42.1,29.84,WSW,257,17.0,17.0,38,0.00,CLR,,0.00,WeatherDisplay:10.37,2013-05-22 07:02:00,
2013-05-22 00:07:00,68.4,42.5,29.85,WSW,258,18.4,18.4,39,0.00,CLR,,0.00,WeatherDisplay:10.37,2013-05-22 07:07:00,
2013-05-22 00:12:00,68.0,42.1,29.85,WSW,256,12.0,12.0,39,0.00,CLR,,0.00,WeatherDisplay:10.37,2013-05-22 07:12:00,
2013-05-22 00:17:00,67.5,43.0,29.84,West,265,13.8,13.8,41,0.00,CLR,,0.00,WeatherDisplay:10.37,2013-05-22 07:17:00,
2013-05-22 00:22:00,67.2,43.3,29.84,West,268,19.6,19.6,42,0.00,CLR,,0.00,WeatherDisplay:10.37,2013-05-22 07:22:00,
2013-05-22 00:27:00,67.0,43.1,29.84,WNW,286,19.6,19.6,42,0.00,CLR,,0.00,WeatherDisplay:10.37,2013-05-22 07:27:00,
2013-05-22 00:32:00,66.7,42.9,29.84,West,275,17.3,17.3,42,0.00,CLR,,0.00,WeatherDisplay:10.37,2013-05-22 07:32:00,
2013-05-22 00:37:00,66.5,42.7,29.85,West,267,18.4,18.4,42,0.00,CLR,,0.00,WeatherDisplay:10.37,2013-05-22 07:37:00,
2013-05-22 00:42:00,66.2,42.4,29.85,West,275,15.0,15.0,42,0.00,CLR,,0.00,WeatherDisplay:10.37,2013-05-22 07:42:00,
2013-05-22 00:47:00,66.0,42.2,29.85,West,279,19.6,19.6,42,0.00,CLR,,0.00,WeatherDisplay:10.37,2013-05-22 07:47:00,
2013-05-22 00:52:00,65.8,42.1,29.85,West,264,17.3,17.3,42,0.00,CLR,,0.00,WeatherDisplay:10.37,2013-05-22 07:52:00,
2013-05-22 00:57:00,65.5,41.8,29.84,WSW,255,18.4,18.4,42,0.00,CLR,,0.00,WeatherDisplay:10.37,2013-05-22 07:57:00,
2013-05-22 01:02:00,65.2,41.5,29.84,West,264,19.6,19.6,42,0.00,CLR,,0.00,WeatherDisplay:10.37,2013-05-22 08:02:00,
2013-05-22 01:07:00,65.0,41.9,29.84,WSW,249,16.1,16.1,43,0.00,CLR,,0.00,WeatherDisplay:10.37,2013-05-22 08:07:00,
2013-05-22 01:12:00,64.8,41.8,29.84,WSW,258,18.4,18.4,43,0.00,CLR,,0.00,WeatherDisplay:10.37,2013-05-22 08:12:00,
2013-05-22 01:17:00,64.5,41.5,29.84,WSW,243,12.7,12.7,43,0.00,CLR,,0.00,WeatherDisplay:10.37,2013-05-22 08:17:00,
2013-05-22 01:22:00,64.0,41.0,29.83,WSW,257,16.1,16.1,43,0.00,CLR,,0.00,WeatherDisplay:10.37,2013-05-22 08:22:00,
2013-05-22 01:27:00,63.5,40.6,29.84,West,259,20.7,20.7,43,0.00,CLR,,0.00,WeatherDisplay:10.37,2013-05-22 08:27:00,
2013-05-22 01:32:00,63.0,40.1,29.83,SW,217,17.3,17.3,43,0.00,CLR,,0.00,WeatherDisplay:10.37,2013-05-22 08:32:00,
2013-05-22 01:37:00,62.5,39.1,29.84,WSW,240,20.7,20.7,42,0.00,CLR,,0.00,WeatherDisplay:10.37,2013-05-22 08:37:00,
2013-05-22 01:42:00,62.3,38.9,29.84,WSW,254,21.9,21.9,42,0.00,CLR,,0.00,WeatherDisplay:10.37,2013-05-22 08:42:00,
2013-05-22 01:47:00,62.2,38.8,29.84,West,261,25.3,25.3,42,0.00,CLR,,0.00,WeatherDisplay:10.37,2013-05-22 08:47:00,
2013-05-22 01:52:00,61.9,38.5,29.84,West,267,19.6,19.6,42,0.00,CLR,,0.00,WeatherDisplay:10.37,2013-05-22 08:52:00,
2013-05-22 01:57:00,61.7,38.4,29.84,West,281,19.6,19.6,42,0.00,CLR,,0.00,WeatherDisplay:10.37,2013-05-22 08:57:00,
2013-05-22 02:02:00,61.7,38.4,29.84,West,259,20.7,20.7,42,0.00,CLR,,0.00,WeatherDisplay:10.37,2013-05-22 09:02:00,
2013-05-22 02:07:00,61.4,38.1,29.83,West,273,18.4,18.4,42,0.00,CLR,,0.00,WeatherDisplay:10.37,2013-05-22 09:07:00,
2013-05-22 02:12:00,61.3,37.4,29.83,West,272,21.9,21.9,41,0.00,CLR,,0.00,WeatherDisplay:10.37,2013-05-22 09:12:00,
2013-05-22 02:17:00,61.3,37.4,29.83,WSW,258,13.8,13.8,41,0.00,CLR,,0.00,WeatherDisplay:10.37,2013-05-22 09:17:00,
2013-05-22 02:22:00,61.3,36.8,29.83,West,261,13.8,13.8,40,0.00,CLR,,0.00,WeatherDisplay:10.37,2013-05-22 09:22:00,
2013-05-22 02:27:00,61.1,36.6,29.83,WSW,257,19.6,19.6,40,0.00,CLR,,0.00,WeatherDisplay:10.37,2013-05-22 09:27:00,
2013-05-22 02:32:00,61.1,36.6,29.83,West,280,19.6,19.6,40,0.00,CLR,,0.00,WeatherDisplay:10.37,2013-05-22 09:32:00,
2013-05-22 02:37:00,61.2,36.7,29.83,WSW,247,17.3,17.3,40,0.00,CLR,,0.00,WeatherDisplay:10.37,2013-05-22 09:37:00,
2013-05-22 02:42:00,61.0,35.8,29.83,West,265,10.4,10.4,39,0.00,CLR,,0.00,WeatherDisplay:10.37,2013-05-22 09:42:00,
2013-05-22 02:47:00,60.7,34.3,29.83,West,272,14.0,14.0,37,0.00,CLR,,0.00,WeatherDisplay:10.37,2013-05-22 09:47:00,
2013-05-22 02:52:00,60.2,33.8,29.83,WSW,258,11.5,11.5,37,0.00,CLR,,0.00,WeatherDisplay:10.37,2013-05-22 09:52:00,
2013-05-22 02:57:00,59.8,34.1,29.83,West,259,6.9,6.9,38,0.00,CLR,,0.00,WeatherDisplay:10.37,2013-05-22 09:57:00,
2013-05-22 03:02:00,59.5,33.9,29.83,West,268,13.0,13.0,38,0.00,CLR,,0.00,WeatherDisplay:10.37,2013-05-22 10:02:00,
2013-05-22 03:07:00,59.3,33.7,29.83,West,264,11.5,11.5,38,0.00,CLR,,0.00,WeatherDisplay:10.37,2013-05-22 10:07:00,
2013-05-22 03:12:00,59.3,33.7,29.82,SW,232,15.0,15.0,38,0.00,CLR,,0.00,WeatherDisplay:10.37,2013-05-22 10:12:00,
2013-05-22 03:17:00,59.4,32.4,29.83,WSW,243,13.8,13.8,36,0.00,CLR,,0.00,WeatherDisplay:10.37,2013-05-22 10:17:00,
2013-05-22 03:22:00,59.0,32.7,29.83,WSW,254,12.7,12.7,37,0.00,CLR,,0.00,WeatherDisplay:10.37,2013-05-22 10:22:00,
2013-05-22 03:27:00,59.0,32.7,29.83,West,264,12.7,12.7,37,0.00,CLR,,0.00,WeatherDisplay:10.37,2013-05-22 10:27:00,
2013-05-22 03:32:00,58.6,31.7,29.83,West,262,15.0,15.0,36,0.00,CLR,,0.00,WeatherDisplay:10.37,2013-05-22 10:32:00,
2013-05-22 03:37:00,58.4,31.5,29.82,SW,232,15.0,15.0,36,0.00,CLR,,0.00,WeatherDisplay:10.37,2013-05-22 10:37:00,
2013-05-22 03:42:00,58.0,31.2,29.83,WSW,248,11.5,11.5,36,0.00,CLR,,0.00,WeatherDisplay:10.37,2013-05-22 10:42:00,
2013-05-22 03:47:00,57.7,31.6,29.82,WSW,241,11.5,11.5,37,0.00,CLR,,0.00,WeatherDisplay:10.37,2013-05-22 10:47:00,
2013-05-22 03:52:00,57.6,31.5,29.82,West,259,10.4,10.4,37,0.00,CLR,,0.00,WeatherDisplay:10.37,2013-05-22 10:52:00,
2013-05-22 03:57:00,57.5,31.4,29.82,West,273,11.5,11.5,37,0.00,CLR,,0.00,WeatherDisplay:10.37,2013-05-22 10:57:00,
2013-05-22 04:02:00,57.4,31.3,29.82,WSW,253,13.8,13.8,37,0.00,CLR,,0.00,WeatherDisplay:10.37,2013-05-22 11:02:00,
2013-05-22 04:07:00,57.2,31.1,29.82,WSW,258,16.1,16.1,37,0.00,CLR,,0.00,WeatherDisplay:10.37,2013-05-22 11:07:00,
2013-05-22 04:12:00,57.1,31.0,29.82,WSW,256,15.0,15.0,37,0.00,CLR,,0.00,WeatherDisplay:10.37,2013-05-22 11:12:00,
2013-05-22 04:17:00,57.1,31.7,29.82,SW,234,19.6,19.6,38,0.00,CLR,,0.00,WeatherDisplay:10.37,2013-05-22 11:17:00,
2013-05-22 04:22:00,57.0,31.6,29.82,WSW,257,19.6,19.6,38,0.00,CLR,,0.00,WeatherDisplay:10.37,2013-05-22 11:22:00,
2013-05-22 04:27:00,56.8,31.4,29.82,WSW,254,17.3,17.3,38,0.00,CLR,,0.00,WeatherDisplay:10.37,2013-05-22 11:27:00,
2013-05-22 04:32:00,56.4,31.7,29.82,SW,231,11.5,11.5,39,0.00,CLR,,0.00,WeatherDisplay:10.37,2013-05-22 11:32:00,
2013-05-22 04:37:00,55.9,32.5,29.82,WSW,249,15.0,15.0,41,0.00,CLR,,0.00,WeatherDisplay:10.37,2013-05-22 11:37:00,
2013-05-22 04:42:00,55.6,32.2,29.82,SW,234,10.4,10.4,41,0.00,CLR,,0.00,WeatherDisplay:10.37,2013-05-22 11:42:00,
2013-05-22 04:47:00,55.5,32.8,29.82,WSW,248,16.1,16.1,42,0.00,CLR,,0.00,WeatherDisplay:10.37,2013-05-22 11:47:00,
2013-05-22 04:52:00,55.3,32.6,29.82,WNW,284,15.0,15.0,42,0.00,CLR,,0.00,WeatherDisplay:10.37,2013-05-22 11:52:00,
2013-05-22 04:57:00,55.5,32.8,29.82,West,273,19.6,19.6,42,0.00,CLR,,0.00,WeatherDisplay:10.37,2013-05-22 11:57:00,
2013-05-22 05:02:00,55.8,32.4,29.82,West,275,11.5,11.5,41,0.00,CLR,,0.00,WeatherDisplay:10.37,2013-05-22 12:02:00,
2013-05-22 05:07:00,55.8,31.8,29.82,West,267,16.1,16.1,40,0.00,CLR,,0.00,WeatherDisplay:10.37,2013-05-22 12:07:00,
2013-05-22 05:12:00,55.5,31.5,29.82,West,265,11.5,11.5,40,0.00,CLR,,0.00,WeatherDisplay:10.37,2013-05-22 12:12:00,
2013-05-22 05:17:00,55.4,31.5,29.82,WSW,237,11.5,11.5,40,0.00,CLR,,0.00,WeatherDisplay:10.37,2013-05-22 12:17:00,
2013-05-22 05:22:00,54.9,31.6,29.82,SW,227,6.9,6.9,41,0.00,CLR,,0.00,WeatherDisplay:10.37,2013-05-22 12:22:00,
2013-05-22 05:27:00,54.5,31.9,29.82,West,265,12.7,12.7,42,0.00,CLR,,0.00,WeatherDisplay:10.37,2013-05-22 12:27:00,
2013-05-22 05:32:00,54.3,31.7,29.82,WSW,249,14.0,14.0,42,0.00,CLR,,0.00,WeatherDisplay:10.37,2013-05-22 12:32:00,
2013-05-22 05:37:00,54.4,31.2,29.82,WNW,288,11.5,11.5,41,0.00,CLR,,0.00,WeatherDisplay:10.37,2013-05-22 12:37:00,
2013-05-22 05:42:00,54.5,30.6,29.82,West,269,13.8,13.8,40,0.00,CLR,,0.00,WeatherDisplay:10.37,2013-05-22 12:42:00,
2013-05-22 05:47:00,54.4,31.2,29.82,WSW,257,18.4,18.4,41,0.00,CLR,,0.00,WeatherDisplay:10.37,2013-05-22 12:47:00,
2013-05-22 05:52:00,54.2,31.0,29.82,WSW,242,17.3,17.3,41,0.00,CLR,,0.00,WeatherDisplay:10.37,2013-05-22 12:52:00,
2013-05-22 05:57:00,53.9,31.3,29.82,West,259,16.1,16.1,42,0.00,CLR,,0.00,WeatherDisplay:10.37,2013-05-22 12:57:00,
2013-05-22 06:02:00,53.6,31.0,29.81,West,266,18.4,18.4,42,0.00,CLR,,0.00,WeatherDisplay:10.37,2013-05-22 13:02:00,
2013-05-22 06:07:00,53.5,31.5,29.81,WSW,258,25.3,25.3,43,0.00,CLR,,0.00,WeatherDisplay:10.37,2013-05-22 13:07:00,
2013-05-22 06:12:00,53.5,31.0,29.82,WSW,237,21.9,21.9,42,0.00,CLR,,0.00,WeatherDisplay:10.37,2013-05-22 13:12:00,
2013-05-22 06:17:00,53.9,30.7,29.82,West,281,26.5,26.5,41,0.00,CLR,,0.00,WeatherDisplay:10.37,2013-05-22 13:17:00,
2013-05-22 06:22:00,53.9,30.7,29.82,West,265,19.6,19.6,41,0.00,CLR,,0.00,WeatherDisplay:10.37,2013-05-22 13:22:00,
2013-05-22 06:27:00,53.9,30.7,29.82,WNW,284,19.6,19.6,41,0.00,CLR,,0.00,WeatherDisplay:10.37,2013-05-22 13:27:00,
2013-05-22 06:32:00,53.9,31.3,29.82,West,278,21.9,21.9,42,0.00,CLR,,0.00,WeatherDisplay:10.37,2013-05-22 13:32:00,
2013-05-22 06:37:00,53.7,31.7,29.83,WSW,257,23.0,23.0,43,0.00,CLR,,0.00,WeatherDisplay:10.37,2013-05-22 13:37:00,
2013-05-22 06:42:00,53.9,31.3,29.83,West,271,20.7,20.7,42,0.00,CLR,,0.00,WeatherDisplay:10.37,2013-05-22 13:42:00,
2013-05-22 06:47:00,54.2,31.6,29.83,West,269,15.0,15.0,42,0.00,CLR,,0.00,WeatherDisplay:10.37,2013-05-22 13:47:00,
2013-05-22 06:52:00,54.5,31.3,29.83,WSW,246,19.6,19.6,41,0.00,CLR,,0.00,WeatherDisplay:10.37,2013-05-22 13:52:00,
2013-05-22 06:57:00,54.7,32.0,29.83,WSW,238,23.0,23.0,42,0.00,CLR,,0.00,WeatherDisplay:10.37,2013-05-22 13:57:00,
2013-05-22 07:02:00,54.8,32.1,29.83,WSW,237,19.6,19.6,42,0.00,CLR,,0.00,WeatherDisplay:10.37,2013-05-22 14:02:00,
2013-05-22 07:07:00,54.8,32.1,29.83,WSW,250,19.6,19.6,42,0.00,CLR,,0.00,WeatherDisplay:10.37,2013-05-22 14:07:00,
2013-05-22 07:12:00,54.8,32.7,29.83,West,260,19.0,19.0,43,0.00,CLR,,0.00,WeatherDisplay:10.37,2013-05-22 14:12:00,
2013-05-22 07:17:00,55.0,32.9,29.83,West,267,24.2,24.2,43,0.00,CLR,,0.00,WeatherDisplay:10.37,2013-05-22 14:17:00,
2013-05-22 07:22:00,55.4,32.7,29.83,WSW,253,24.2,24.2,42,0.00,CLR,,0.00,WeatherDisplay:10.37,2013-05-22 14:22:00,
2013-05-22 07:27:00,55.5,33.3,29.83,WNW,286,25.3,25.3,43,0.00,CLR,,0.00,WeatherDisplay:10.37,2013-05-22 14:27:00,
2013-05-22 07:32:00,56.0,33.2,29.83,West,265,21.9,21.9,42,0.00,CLR,,0.00,WeatherDisplay:10.37,2013-05-22 14:32:00,
2013-05-22 07:37:00,56.3,33.5,29.83,West,267,24.2,24.2,42,0.00,CLR,,0.00,WeatherDisplay:10.37,2013-05-22 14:37:00,
2013-05-22 07:42:00,56.9,34.0,29.83,West,267,29.0,29.0,42,0.00,CLR,,0.00,WeatherDisplay:10.37,2013-05-22 14:42:00,
2013-05-22 07:47:00,57.2,34.3,29.83,WNW,295,20.7,20.7,42,0.00,CLR,,0.00,WeatherDisplay:10.37,2013-05-22 14:47:00,
2013-05-22 07:52:00,57.4,33.9,29.84,WSW,252,23.0,23.0,41,0.00,CLR,,0.00,WeatherDisplay:10.37,2013-05-22 14:52:00,
2013-05-22 07:57:00,57.6,34.7,29.84,WSW,239,23.0,23.0,42,0.00,CLR,,0.00,WeatherDisplay:10.37,2013-05-22 14:57:00,
2013-05-22 08:02:00,57.8,34.2,29.84,SW,219,20.7,20.7,41,0.00,CLR,,0.00,WeatherDisplay:10.37,2013-05-22 15:02:00,
2013-05-22 08:07:00,58.6,33.7,29.84,West,261,24.2,24.2,39,0.00,CLR,,0.00,WeatherDisplay:10.37,2013-05-22 15:07:00,
2013-05-22 08:12:00,59.0,34.1,29.84,WSW,254,20.7,20.7,39,0.00,CLR,,0.00,WeatherDisplay:10.37,2013-05-22 15:12:00,
2013-05-22 08:17:00,59.0,33.4,29.84,West,280,23.0,23.0,38,0.00,CLR,,0.00,WeatherDisplay:10.37,2013-05-22 15:17:00,
2013-05-22 08:22:00,59.2,34.2,29.84,WSW,254,20.0,20.0,39,0.00,CLR,,0.00,WeatherDisplay:10.37,2013-05-22 15:22:00,
2013-05-22 08:27:00,59.9,34.2,29.84,WSW,247,24.0,24.0,38,0.00,CLR,,0.00,WeatherDisplay:10.37,2013-05-22 15:27:00,
2013-05-22 08:32:00,59.8,35.4,29.84,WSW,252,19.6,19.6,40,0.00,CLR,,0.00,WeatherDisplay:10.37,2013-05-22 15:32:00,
2013-05-22 08:37:00,59.8,35.4,29.84,SW,221,20.7,20.7,40,0.00,CLR,,0.00,WeatherDisplay:10.37,2013-05-22 15:37:00,
2013-05-22 08:42:00,60.4,35.9,29.84,WSW,252,21.9,21.9,40,0.00,CLR,,0.00,WeatherDisplay:10.37,2013-05-22 15:42:00,
2013-05-22 08:47:00,60.7,36.2,29.84,West,277,19.6,19.6,40,0.00,CLR,,0.00,WeatherDisplay:10.37,2013-05-22 15:47:00,
2013-05-22 08:52:00,60.9,35.8,29.84,WSW,250,22.0,22.0,39,0.00,CLR,,0.00,WeatherDisplay:10.37,2013-05-22 15:52:00,
2013-05-22 08:57:00,61.1,35.3,29.84,WSW,258,25.3,25.3,38,0.00,CLR,,0.00,WeatherDisplay:10.37,2013-05-22 15:57:00,
2013-05-22 09:02:00,61.4,35.5,29.84,WSW,253,24.2,24.2,38,0.00,CLR,,0.00,WeatherDisplay:10.37,2013-05-22 16:02:00,
2013-05-22 09:07:00,61.9,36.0,29.84,SW,230,19.6,19.6,38,0.00,CLR,,0.00,WeatherDisplay:10.37,2013-05-22 16:07:00,
2013-05-22 09:12:00,62.7,36.0,29.84,West,260,20.0,20.0,37,0.00,CLR,,0.00,WeatherDisplay:10.37,2013-05-22 16:12:00,
2013-05-22 09:17:00,63.0,36.3,29.83,West,279,26.5,26.5,37,0.00,CLR,,0.00,WeatherDisplay:10.37,2013-05-22 16:17:00,
2013-05-22 09:22:00,62.8,36.1,29.83,SW,232,23.0,23.0,37,0.00,CLR,,0.00,WeatherDisplay:10.37,2013-05-22 16:22:00,
2013-05-22 09:27:00,62.9,36.2,29.84,SSW,211,26.5,26.5,37,0.00,CLR,,0.00,WeatherDisplay:10.37,2013-05-22 16:27:00,
2013-05-22 09:32:00,62.7,36.0,29.83,WSW,254,26.5,26.5,37,0.00,CLR,,0.00,WeatherDisplay:10.37,2013-05-22 16:32:00,
2013-05-22 09:37:00,63.2,35.8,29.83,West,281,21.9,21.9,36,0.00,CLR,,0.00,WeatherDisplay:10.37,2013-05-22 16:37:00,
2013-05-22 09:42:00,63.4,36.0,29.83,WSW,244,24.2,24.2,36,0.00,CLR,,0.00,WeatherDisplay:10.37,2013-05-22 16:42:00,
2013-05-22 09:47:00,63.8,35.6,29.83,West,260,21.9,21.9,35,0.00,CLR,,0.00,WeatherDisplay:10.37,2013-05-22 16:47:00,
2013-05-22 09:52:00,64.1,35.9,29.83,WSW,242,23.0,23.0,35,0.00,CLR,,0.00,WeatherDisplay:10.37,2013-05-22 16:52:00,
2013-05-22 09:57:00,64.5,35.5,29.83,SSW,211,19.6,19.6,34,0.00,CLR,,0.00,WeatherDisplay:10.37,2013-05-22 16:57:00,
2013-05-22 10:02:00,65.0,35.2,29.83,WSW,248,26.5,26.5,33,0.00,CLR,,0.00,WeatherDisplay:10.37,2013-05-22 17:02:00,
2013-05-22 10:07:00,65.3,35.4,29.83,SW,236,24.2,24.2,33,0.00,CLR,,0.00,WeatherDisplay:10.37,2013-05-22 17:07:00,
2013-05-22 10:12:00,65.4,34.8,29.83,WSW,241,21.9,21.9,32,0.00,CLR,,0.00,WeatherDisplay:10.37,2013-05-22 17:12:00,
2013-05-22 10:17:00,65.6,34.1,29.82,WSW,254,26.5,26.5,31,0.00,CLR,,0.00,WeatherDisplay:10.37,2013-05-22 17:17:00,
2013-05-22 10:22:00,66.3,34.7,29.82,SW,229,23.0,23.0,31,0.00,CLR,,0.00,WeatherDisplay:10.37,2013-05-22 17:22:00,
2013-05-22 10:27:00,66.6,34.2,29.82,SW,235,25.3,25.3,30,0.00,CLR,,0.00,WeatherDisplay:10.37,2013-05-22 17:27:00,
2013-05-22 10:32:00,67.4,34.0,29.82,WSW,238,26.5,26.5,29,0.00,CLR,,0.00,WeatherDisplay:10.37,2013-05-22 17:32:00,
2013-05-22 10:37:00,67.8,34.4,29.82,West,277,26.5,26.5,29,0.00,CLR,,0.00,WeatherDisplay:10.37,2013-05-22 17:37:00,
2013-05-22 10:42:00,68.2,33.8,29.82,WSW,256,26.5,26.5,28,0.00,CLR,,0.00,WeatherDisplay:10.37,2013-05-22 17:42:00,
2013-05-22 10:47:00,68.9,33.5,29.82,West,269,26.5,26.5,27,0.00,CLR,,0.00,WeatherDisplay:10.37,2013-05-22 17:47:00,
2013-05-22 10:52:00,69.4,33.9,29.82,West,272,26.5,26.5,27,0.00,CLR,,0.00,WeatherDisplay:10.37,2013-05-22 17:52:00,
2013-05-22 10:57:00,69.5,33.1,29.82,West,271,25.3,25.3,26,0.00,CLR,,0.00,WeatherDisplay:10.37,2013-05-22 17:57:00,
2013-05-22 11:02:00,69.5,33.1,29.82,West,265,20.7,20.7,26,0.00,CLR,,0.00,WeatherDisplay:10.37,2013-05-22 18:02:00,
2013-05-22 11:07:00,69.6,33.2,29.82,West,268,24.2,24.2,26,0.00,CLR,,0.00,WeatherDisplay:10.37,2013-05-22 18:07:00,
2013-05-22 11:12:00,70.1,33.6,29.82,WSW,252,19.6,19.6,26,0.00,CLR,,0.00,WeatherDisplay:10.37,2013-05-22 18:12:00,
2013-05-22 11:17:00,70.6,33.0,29.82,WSW,248,20.7,20.7,25,0.00,CLR,,0.00,WeatherDisplay:10.37,2013-05-22 18:17:00,
2013-05-22 11:22:00,70.9,33.3,29.81,WSW,248,23.0,23.0,25,0.00,CLR,,0.00,WeatherDisplay:10.37,2013-05-22 18:22:00,
2013-05-22 11:27:00,70.7,32.1,29.81,West,261,25.3,25.3,24,0.00,CLR,,0.00,WeatherDisplay:10.37,2013-05-22 18:27:00,
2013-05-22 11:32:00,70.8,32.2,29.81,WSW,257,24.2,24.2,24,0.00,CLR,,0.00,WeatherDisplay:10.37,2013-05-22 18:32:00,
2013-05-22 11:37:00,71.2,33.6,29.81,West,259,26.5,26.5,25,0.00,CLR,,0.00,WeatherDisplay:10.37,2013-05-22 18:37:00,
2013-05-22 11:42:00,71.8,33.0,29.81,West,267,24.2,24.2,24,0.00,CLR,,0.00,WeatherDisplay:10.37,2013-05-22 18:42:00,
2013-05-22 11:47:00,71.3,32.6,29.82,WSW,256,31.1,31.1,24,0.00,CLR,,0.00,WeatherDisplay:10.37,2013-05-22 18:47:00,
2013-05-22 11:52:00,71.7,33.0,29.81,WSW,242,28.8,28.8,24,0.00,CLR,,0.00,WeatherDisplay:10.37,2013-05-22 18:52:00,
2013-05-22 11:57:00,72.1,34.3,29.81,West,277,26.5,26.5,25,0.00,CLR,,0.00,WeatherDisplay:10.37,2013-05-22 18:57:00,
2013-05-22 12:02:00,72.2,34.4,29.81,WSW,250,33.4,33.4,25,0.00,CLR,,0.00,WeatherDisplay:10.37,2013-05-22 19:02:00,
2013-05-22 12:07:00,72.1,34.3,29.81,West,263,27.6,27.6,25,0.00,CLR,,0.00,WeatherDisplay:10.37,2013-05-22 19:07:00,
2013-05-22 12:12:00,72.5,35.6,29.81,West,267,25.3,25.3,26,0.00,CLR,,0.00,WeatherDisplay:10.37,2013-05-22 19:12:00,
2013-05-22 12:17:00,72.6,35.7,29.81,WSW,257,29.9,29.9,26,0.00,CLR,,0.00,WeatherDisplay:10.37,2013-05-22 19:17:00,
2013-05-22 12:22:00,72.8,34.9,29.80,West,263,30.0,30.0,25,0.00,CLR,,0.00,WeatherDisplay:10.37,2013-05-22 19:22:00,
2013-05-22 12:27:00,73.1,35.2,29.80,WSW,258,27.0,27.0,25,0.00,CLR,,0.00,WeatherDisplay:10.37,2013-05-22 19:27:00,
2013-05-22 12:32:00,73.0,34.1,29.81,WSW,252,30.0,30.0,24,0.00,CLR,,0.00,WeatherDisplay:10.37,2013-05-22 19:32:00,
2013-05-22 12:37:00,73.1,34.1,29.80,WSW,242,26.5,26.5,24,0.00,CLR,,0.00,WeatherDisplay:10.37,2013-05-22 19:37:00,
2013-05-22 12:42:00,73.8,33.7,29.80,SW,230,26.5,26.5,23,0.00,CLR,,0.00,WeatherDisplay:10.37,2013-05-22 19:42:00,
2013-05-22 12:47:00,73.9,33.7,29.80,SW,229,26.5,26.5,23,0.00,CLR,,0.00,WeatherDisplay:10.37,2013-05-22 19:47:00,
2013-05-22 12:52:00,74.7,32.1,29.80,West,273,29.9,29.9,21,0.00,CLR,,0.00,WeatherDisplay:10.37,2013-05-22 19:52:00,
2013-05-22 12:57:00,74.5,30.8,29.80,West,270,28.8,28.8,20,0.00,CLR,,0.00,WeatherDisplay:10.37,2013-05-22 19:57:00,
2013-05-22 13:02:00,74.6,32.1,29.80,WSW,256,25.3,25.3,21,0.00,CLR,,0.00,WeatherDisplay:10.37,2013-05-22 20:02:00,
2013-05-22 13:07:00,74.9,31.1,29.80,WNW,302,29.0,29.0,20,0.00,CLR,,0.00,WeatherDisplay:10.37,2013-05-22 20:07:00,
2013-05-22 13:12:00,74.3,30.6,29.79,West,280,32.0,32.0,20,0.00,CLR,,0.00,WeatherDisplay:10.37,2013-05-22 20:12:00,
2013-05-22 13:17:00,74.3,30.6,29.80,West,259,28.8,28.8,20,0.00,CLR,,0.00,WeatherDisplay:10.37,2013-05-22 20:17:00,
2013-05-22 13:22:00,74.5,30.8,29.79,WSW,257,26.5,26.5,20,0.00,CLR,,0.00,WeatherDisplay:10.37,2013-05-22 20:22:00,
2013-05-22 13:27:00,75.5,30.3,29.79,WSW,248,23.0,23.0,19,0.00,CLR,,0.00,WeatherDisplay:10.37,2013-05-22 20:27:00,
2013-05-22 13:32:00,74.9,29.8,29.79,West,275,25.3,25.3,19,0.00,CLR,,0.00,WeatherDisplay:10.37,2013-05-22 20:32:00,
2013-05-22 13:37:00,75.0,29.9,29.79,West,269,25.0,25.0,19,0.00,CLR,,0.00,WeatherDisplay:10.37,2013-05-22 20:37:00,
2013-05-22 13:42:00,75.4,28.9,29.79,West,280,26.5,26.5,18,0.00,CLR,,0.00,WeatherDisplay:10.37,2013-05-22 20:42:00,
2013-05-22 13:47:00,75.7,26.3,29.78,West,259,20.7,20.7,16,0.00,CLR,,0.00,WeatherDisplay:10.37,2013-05-22 20:47:00,
2013-05-22 13:52:00,76.3,28.3,29.79,West,281,25.3,25.3,17,0.00,CLR,,0.00,WeatherDisplay:10.37,2013-05-22 20:52:00,
2013-05-22 13:57:00,75.8,27.8,29.78,West,277,28.8,28.8,17,0.00,CLR,,0.00,WeatherDisplay:10.37,2013-05-22 20:57:00,
2013-05-22 14:02:00,75.7,29.2,29.78,West,271,16.1,16.1,18,0.00,CLR,,0.00,WeatherDisplay:10.37,2013-05-22 21:02:00,
2013-05-22 14:07:00,76.4,26.9,29.78,West,276,21.9,21.9,16,0.00,CLR,,0.00,WeatherDisplay:10.37,2013-05-22 21:07:00,
2013-05-22 14:12:00,75.7,29.2,29.78,West,265,33.4,33.4,18,0.00,CLR,,0.00,WeatherDisplay:10.37,2013-05-22 21:12:00,
2013-05-22 14:17:00,75.3,27.4,29.78,West,273,25.3,25.3,17,0.00,CLR,,0.00,WeatherDisplay:10.37,2013-05-22 21:17:00,
2013-05-22 14:22:00,76.2,26.7,29.77,WNW,284,23.0,23.0,16,0.00,CLR,,0.00,WeatherDisplay:10.37,2013-05-22 21:22:00,
2013-05-22 14:27:00,76.4,28.3,29.78,West,265,27.6,27.6,17,0.00,CLR,,0.00,WeatherDisplay:10.37,2013-05-22 21:27:00,
2013-05-22 14:32:00,75.9,27.9,29.78,WNW,283,31.1,31.1,17,0.00,CLR,,0.00,WeatherDisplay:10.37,2013-05-22 21:32:00,
2013-05-22 14:37:00,75.5,27.6,29.78,West,260,27.6,27.6,17,0.00,CLR,,0.00,WeatherDisplay:10.37,2013-05-22 21:37:00,
2013-05-22 14:42:00,75.9,27.9,29.77,WSW,252,24.2,24.2,17,0.00,CLR,,0.00,WeatherDisplay:10.37,2013-05-22 21:42:00,
2013-05-22 14:47:00,75.8,27.8,29.78,West,279,26.5,26.5,17,0.00,CLR,,0.00,WeatherDisplay:10.37,2013-05-22 21:47:00,
2013-05-22 14:52:00,76.0,29.4,29.77,WSW,249,25.3,25.3,18,0.00,CLR,,0.00,WeatherDisplay:10.37,2013-05-22 21:52:00,
2013-05-22 14:57:00,75.9,29.3,29.77,West,272,19.6,19.6,18,0.00,CLR,,0.00,WeatherDisplay:10.37,2013-05-22 21:57:00,
2013-05-22 15:02:00,75.5,29.0,29.77,WSW,250,26.5,26.5,18,0.00,CLR,,0.00,WeatherDisplay:10.37,2013-05-22 22:02:00,
2013-05-22 15:07:00,75.8,27.8,29.77,West,261,27.0,27.0,17,0.00,CLR,,0.00,WeatherDisplay:10.37,2013-05-22 22:07:00,
2013-05-22 15:12:00,75.8,27.8,29.77,West,265,26.5,26.5,17,0.00,CLR,,0.00,WeatherDisplay:10.37,2013-05-22 22:12:00,
2013-05-22 15:17:00,75.3,27.4,29.78,West,264,27.6,27.6,17,0.00,CLR,,0.00,WeatherDisplay:10.37,2013-05-22 22:17:00,
2013-05-22 15:22:00,75.0,28.6,29.77,WNW,282,26.5,26.5,18,0.00,CLR,,0.00,WeatherDisplay:10.37,2013-05-22 22:22:00,
2013-05-22 15:27:00,75.3,27.4,29.77,SW,214,26.5,26.5,17,0.00,CLR,,0.00,WeatherDisplay:10.37,2013-05-22 22:27:00,
2013-05-22 15:32:00,74.8,28.4,29.77,WNW,292,26.5,26.5,18,0.00,CLR,,0.00,WeatherDisplay:10.37,2013-05-22 22:32:00,
2013-05-22 15:37:00,74.2,27.9,29.77,West,267,27.0,27.0,18,0.00,CLR,,0.00,WeatherDisplay:10.37,2013-05-22 22:37:00,
2013-05-22 15:42:00,74.6,28.3,29.77,West,281,24.2,24.2,18,0.00,CLR,,0.00,WeatherDisplay:10.37,2013-05-22 22:42:00,
2013-05-22 15:47:00,74.4,25.2,29.77,WSW,253,26.5,26.5,16,0.00,CLR,,0.00,WeatherDisplay:10.37,2013-05-22 22:47:00,
2013-05-22 15:52:00,73.9,24.8,29.77,West,272,28.8,28.8,16,0.00,CLR,,0.00,WeatherDisplay:10.37,2013-05-22 22:52:00,
2013-05-22 15:57:00,73.6,23.1,29.77,West,277,25.3,25.3,15,0.00,CLR,,0.00,WeatherDisplay:10.37,2013-05-22 22:57:00,
2013-05-22 16:02:00,74.4,28.1,29.77,West,261,23.0,23.0,18,0.00,CLR,,0.00,WeatherDisplay:10.37,2013-05-22 23:02:00,
2013-05-22 16:07:00,74.3,25.2,29.77,West,272,26.5,26.5,16,0.00,CLR,,0.00,WeatherDisplay:10.37,2013-05-22 23:07:00,
2013-05-22 16:12:00,73.7,24.7,29.77,West,277,28.0,28.0,16,0.00,CLR,,0.00,WeatherDisplay:10.37,2013-05-22 23:12:00,
2013-05-22 16:17:00,73.9,26.3,29.77,West,264,24.2,24.2,17,0.00,CLR,,0.00,WeatherDisplay:10.37,2013-05-22 23:17:00,
2013-05-22 16:22:00,73.9,24.8,29.77,West,261,25.3,25.3,16,0.00,CLR,,0.00,WeatherDisplay:10.37,2013-05-22 23:22:00,
2013-05-22 16:27:00,74.1,25.0,29.76,WNW,286,19.6,19.6,16,0.00,CLR,,0.00,WeatherDisplay:10.37,2013-05-22 23:27:00,
2013-05-22 16:32:00,73.4,25.9,29.76,WNW,284,24.2,24.2,17,0.00,CLR,,0.00,WeatherDisplay:10.37,2013-05-22 23:32:00,
2013-05-22 16:37:00,73.8,26.2,29.76,WNW,287,28.8,28.8,17,0.00,CLR,,0.00,WeatherDisplay:10.37,2013-05-22 23:37:00,
2013-05-22 16:42:00,73.5,24.5,29.76,West,281,26.5,26.5,16,0.00,CLR,,0.00,WeatherDisplay:10.37,2013-05-22 23:42:00,
2013-05-22 16:47:00,73.6,26.1,29.76,West,263,25.3,25.3,17,0.00,CLR,,0.00,WeatherDisplay:10.37,2013-05-22 23:47:00,
2013-05-22 16:52:00,73.5,26.0,29.76,West,275,21.0,21.0,17,0.00,CLR,,0.00,WeatherDisplay:10.37,2013-05-22 23:52:00,
2013-05-22 16:57:00,72.9,25.5,29.76,West,269,26.5,26.5,17,0.00,CLR,,0.00,WeatherDisplay:10.37,2013-05-22 23:57:00,
2013-05-22 17:02:00,73.2,25.7,29.76,WNW,294,21.9,21.9,17,0.00,CLR,,0.00,WeatherDisplay:10.37,2013-05-23 00:02:00,
2013-05-22 17:07:00,73.0,25.6,29.77,WSW,257,23.0,23.0,17,0.00,CLR,,0.00,WeatherDisplay:10.37,2013-05-23 00:07:00,
2013-05-22 17:12:00,72.9,25.5,29.76,West,267,25.3,25.3,17,0.00,CLR,,0.00,WeatherDisplay:10.37,2013-05-23 00:12:00,
2013-05-22 17:17:00,72.7,25.3,29.76,WNW,291,26.5,26.5,17,0.00,CLR,,0.00,WeatherDisplay:10.37,2013-05-23 00:17:00,
2013-05-22 17:22:00,72.6,26.6,29.76,WSW,257,26.5,26.5,18,0.00,CLR,,0.00,WeatherDisplay:10.37,2013-05-23 00:22:00,
2013-05-22 17:27:00,72.1,27.5,29.76,WNW,284,25.3,25.3,19,0.00,CLR,,0.00,WeatherDisplay:10.37,2013-05-23 00:27:00,
2013-05-22 17:32:00,71.8,26.0,29.76,West,279,26.5,26.5,18,0.00,CLR,,0.00,WeatherDisplay:10.37,2013-05-23 00:32:00,
2013-05-22 17:37:00,71.6,27.1,29.76,West,269,25.3,25.3,19,0.00,CLR,,0.00,WeatherDisplay:10.37,2013-05-23 00:37:00,
2013-05-22 17:42:00,71.3,29.3,29.76,West,263,27.6,27.6,21,0.00,CLR,,0.00,WeatherDisplay:10.37,2013-05-23 00:42:00,
2013-05-22 17:47:00,71.2,28.0,29.77,WSW,255,23.0,23.0,20,0.00,CLR,,0.00,WeatherDisplay:10.37,2013-05-23 00:47:00,
2013-05-22 17:52:00,70.9,29.0,29.76,West,267,23.0,23.0,21,0.00,CLR,,0.00,WeatherDisplay:10.37,2013-05-23 00:52:00,
2013-05-22 17:57:00,70.5,28.7,29.77,West,269,30.0,30.0,21,0.00,CLR,,0.00,WeatherDisplay:10.37,2013-05-23 00:57:00,
2013-05-22 18:02:00,69.9,29.3,29.76,WSW,248,27.6,27.6,22,0.00,CLR,,0.00,WeatherDisplay:10.37,2013-05-23 01:02:00,
2013-05-22 18:07:00,69.4,28.9,29.76,West,259,24.2,24.2,22,0.00,CLR,,0.00,WeatherDisplay:10.37,2013-05-23 01:07:00,
2013-05-22 18:12:00,69.1,30.8,29.76,WSW,258,28.8,28.8,24,0.00,CLR,,0.00,WeatherDisplay:10.37,2013-05-23 01:12:00,
2013-05-22 18:17:00,68.8,29.5,29.77,WSW,246,27.6,27.6,23,0.00,CLR,,0.00,WeatherDisplay:10.37,2013-05-23 01:17:00,
2013-05-22 18:22:00,68.4,29.1,29.76,SW,226,26.5,26.5,23,0.00,CLR,,0.00,WeatherDisplay:10.37,2013-05-23 01:22:00,
2013-05-22 18:27:00,68.0,30.8,29.77,West,261,29.9,29.9,25,0.00,CLR,,0.00,WeatherDisplay:10.37,2013-05-23 01:27:00,
2013-05-22 18:32:00,67.5,30.4,29.77,West,264,25.3,25.3,25,0.00,CLR,,0.00,WeatherDisplay:10.37,2013-05-23 01:32:00,
2013-05-22 18:37:00,67.3,30.2,29.77,West,265,29.9,29.9,25,0.00,CLR,,0.00,WeatherDisplay:10.37,2013-05-23 01:37:00,
2013-05-22 18:42:00,66.8,30.8,29.77,West,261,21.9,21.9,26,0.00,CLR,,0.00,WeatherDisplay:10.37,2013-05-23 01:42:00,
2013-05-22 18:47:00,66.6,31.5,29.78,West,263,26.5,26.5,27,0.00,CLR,,0.00,WeatherDisplay:10.37,2013-05-23 01:47:00,
2013-05-22 18:52:00,65.8,30.9,29.77,WSW,252,28.8,28.8,27,0.00,CLR,,0.00,WeatherDisplay:10.37,2013-05-23 01:52:00,
2013-05-22 18:57:00,65.5,30.6,29.78,West,260,26.5,26.5,27,0.00,CLR,,0.00,WeatherDisplay:10.37,2013-05-23 01:57:00,
2013-05-22 19:02:00,65.3,31.3,29.77,WSW,255,26.5,26.5,28,0.00,CLR,,0.00,WeatherDisplay:10.37,2013-05-23 02:02:00,
2013-05-22 19:07:00,65.2,31.2,29.78,WSW,242,26.5,26.5,28,0.00,CLR,,0.00,WeatherDisplay:10.37,2013-05-23 02:07:00,
2013-05-22 19:12:00,64.8,31.8,29.78,SW,236,25.3,25.3,29,0.00,CLR,,0.00,WeatherDisplay:10.37,2013-05-23 02:12:00,
2013-05-22 19:17:00,64.1,32.0,29.78,West,267,31.0,31.0,30,0.00,CLR,,0.00,WeatherDisplay:10.37,2013-05-23 02:17:00,
2013-05-22 19:22:00,63.8,32.6,29.78,WSW,245,25.3,25.3,31,0.00,CLR,,0.00,WeatherDisplay:10.37,2013-05-23 02:22:00,
2013-05-22 19:27:00,63.4,32.2,29.78,WSW,248,26.5,26.5,31,0.00,CLR,,0.00,WeatherDisplay:10.37,2013-05-23 02:27:00,
2013-05-22 19:32:00,63.0,33.4,29.78,West,275,29.9,29.9,33,0.00,CLR,,0.00,WeatherDisplay:10.37,2013-05-23 02:32:00,
2013-05-22 19:37:00,62.7,32.4,29.78,WSW,257,24.2,24.2,32,0.00,CLR,,0.00,WeatherDisplay:10.37,2013-05-23 02:37:00,
2013-05-22 19:42:00,62.2,33.5,29.78,SW,236,27.6,27.6,34,0.00,CLR,,0.00,WeatherDisplay:10.37,2013-05-23 02:42:00,
2013-05-22 19:47:00,61.9,33.2,29.78,WSW,252,26.5,26.5,34,0.00,CLR,,0.00,WeatherDisplay:10.37,2013-05-23 02:47:00,
2013-05-22 19:52:00,61.6,33.7,29.78,SW,234,26.5,26.5,35,0.00,CLR,,0.00,WeatherDisplay:10.37,2013-05-23 02:52:00,
2013-05-22 19:57:00,61.4,33.5,29.78,WSW,246,20.7,20.7,35,0.00,CLR,,0.00,WeatherDisplay:10.37,2013-05-23 02:57:00,
2013-05-22 20:02:00,61.1,33.2,29.79,SW,236,29.9,29.9,35,0.00,CLR,,0.00,WeatherDisplay:10.37,2013-05-23 03:02:00,
2013-05-22 20:07:00,60.9,33.0,29.79,WSW,246,26.5,26.5,35,0.00,CLR,,0.00,WeatherDisplay:10.37,2013-05-23 03:07:00,
2013-05-22 20:12:00,60.6,33.5,29.79,West,267,26.5,26.5,36,0.00,CLR,,0.00,WeatherDisplay:10.37,2013-05-23 03:12:00,
2013-05-22 20:17:00,60.4,33.3,29.78,West,259,26.5,26.5,36,0.00,CLR,,0.00,WeatherDisplay:10.37,2013-05-23 03:17:00,
2013-05-22 20:22:00,60.2,32.4,29.79,West,260,23.0,23.0,35,0.00,CLR,,0.00,WeatherDisplay:10.37,2013-05-23 03:22:00,
2013-05-22 20:27:00,60.1,32.3,29.79,West,261,28.8,28.8,35,0.00,CLR,,0.00,WeatherDisplay:10.37,2013-05-23 03:27:00,
2013-05-22 20:32:00,60.0,32.2,29.79,WSW,257,20.7,20.7,35,0.00,CLR,,0.00,WeatherDisplay:10.37,2013-05-23 03:32:00,
2013-05-22 20:37:00,59.9,32.2,29.79,West,265,26.5,26.5,35,0.00,CLR,,0.00,WeatherDisplay:10.37,2013-05-23 03:37:00,
2013-05-22 20:42:00,59.6,32.6,29.80,WSW,256,19.6,19.6,36,0.00,CLR,,0.00,WeatherDisplay:10.37,2013-05-23 03:42:00,
2013-05-22 20:47:00,59.2,32.2,29.80,WSW,253,18.4,18.4,36,0.00,CLR,,0.00,WeatherDisplay:10.37,2013-05-23 03:47:00,
2013-05-22 20:52:00,59.0,32.7,29.80,SW,234,15.0,15.0,37,0.00,CLR,,0.00,WeatherDisplay:10.37,2013-05-23 03:52:00,
2013-05-22 20:57:00,58.9,33.3,29.80,WSW,250,19.6,19.6,38,0.00,CLR,,0.00,WeatherDisplay:10.37,2013-05-23 03:57:00,
2013-05-22 21:01:00,58.7,32.5,29.80,WSW,237,17.3,17.3,37,0.00,CLR,,0.00,WeatherDisplay:10.37,2013-05-23 04:01:00,
2013-05-22 21:02:00,58.6,32.4,29.80,West,269,16.1,16.1,37,0.00,CLR,,0.00,WeatherDisplay:10.37,2013-05-23 04:02:00,
2013-05-22 21:03:00,58.6,32.4,29.80,West,264,13.8,13.8,37,0.00,CLR,,0.00,WeatherDisplay:10.37,2013-05-23 04:03:00,
2013-05-22 21:04:00,58.5,32.3,29.80,WSW,251,15.0,15.0,37,0.00,CLR,,0.00,WeatherDisplay:10.37,2013-05-23 04:04:00,
2013-05-22 21:09:00,58.3,32.1,29.80,WSW,258,17.3,17.3,37,0.00,CLR,,0.00,WeatherDisplay:10.37,2013-05-23 04:09:00,
2013-05-22 21:14:00,58.2,32.0,29.80,West,259,18.4,18.4,37,0.00,CLR,,0.00,WeatherDisplay:10.37,2013-05-23 04:14:00,
2013-05-22 21:19:00,58.3,32.1,29.81,West,260,16.1,16.1,37,0.00,CLR,,0.00,WeatherDisplay:10.37,2013-05-23 04:19:00,
2013-05-22 21:24:00,58.1,31.9,29.81,WSW,250,11.5,11.5,37,0.00,CLR,,0.00,WeatherDisplay:10.37,2013-05-23 04:24:00,
2013-05-22 21:29:00,57.8,31.7,29.81,WSW,254,11.5,11.5,37,0.00,CLR,,0.00,WeatherDisplay:10.37,2013-05-23 04:29:00,
2013-05-22 21:34:00,57.7,30.9,29.81,West,265,12.7,12.7,36,0.00,CLR,,0.00,WeatherDisplay:10.37,2013-05-23 04:34:00,
2013-05-22 21:39:00,57.7,30.9,29.81,West,261,11.5,11.5,36,0.00,CLR,,0.00,WeatherDisplay:10.37,2013-05-23 04:39:00,
2013-05-22 21:44:00,57.9,30.4,29.81,West,268,17.3,17.3,35,0.00,CLR,,0.00,WeatherDisplay:10.37,2013-05-23 04:44:00,
2013-05-22 21:49:00,58.0,30.5,29.81,West,264,15.0,15.0,35,0.00,CLR,,0.00,WeatherDisplay:10.37,2013-05-23 04:49:00,
2013-05-22 21:54:00,57.8,31.0,29.81,West,263,20.7,20.7,36,0.00,CLR,,0.00,WeatherDisplay:10.37,2013-05-23 04:54:00,
2013-05-22 21:59:00,57.4,31.3,29.82,West,263,24.2,24.2,37,0.00,CLR,,0.00,WeatherDisplay:10.37,2013-05-23 04:59:00,
2013-05-22 22:04:00,57.1,31.0,29.82,WSW,250,17.3,17.3,37,0.00,CLR,,0.00,WeatherDisplay:10.37,2013-05-23 05:04:00,
2013-05-22 22:09:00,56.9,30.9,29.81,West,269,23.0,23.0,37,0.00,CLR,,0.00,WeatherDisplay:10.37,2013-05-23 05:09:00,
2013-05-22 22:14:00,57.1,31.0,29.82,West,265,21.9,21.9,37,0.00,CLR,,0.00,WeatherDisplay:10.37,2013-05-23 05:14:00,
2013-05-22 22:19:00,57.1,30.4,29.82,West,273,16.1,16.1,36,0.00,CLR,,0.00,WeatherDisplay:10.37,2013-05-23 05:19:00,
2013-05-22 22:24:00,57.0,30.3,29.82,West,260,18.4,18.4,36,0.00,CLR,,0.00,WeatherDisplay:10.37,2013-05-23 05:24:00,
2013-05-22 22:29:00,57.0,30.3,29.82,West,273,18.4,18.4,36,0.00,CLR,,0.00,WeatherDisplay:10.37,2013-05-23 05:29:00,
2013-05-22 22:34:00,57.1,30.4,29.82,WSW,253,18.4,18.4,36,0.00,CLR,,0.00,WeatherDisplay:10.37,2013-05-23 05:34:00,
2013-05-22 22:39:00,56.9,30.2,29.82,WSW,248,13.8,13.8,36,0.00,CLR,,0.00,WeatherDisplay:10.37,2013-05-23 05:39:00,
2013-05-22 22:44:00,56.6,29.9,29.82,WSW,252,11.5,11.5,36,0.00,CLR,,0.00,WeatherDisplay:10.37,2013-05-23 05:44:00,
2013-05-22 22:49:00,56.7,29.3,29.81,West,271,11.5,11.5,35,0.00,CLR,,0.00,WeatherDisplay:10.37,2013-05-23 05:49:00,
2013-05-22 22:54:00,57.0,29.6,29.81,West,269,19.6,19.6,35,0.00,CLR,,0.00,WeatherDisplay:10.37,2013-05-23 05:54:00,
2013-05-22 22:59:00,57.2,29.1,29.81,WSW,252,19.6,19.6,34,0.00,CLR,,0.00,WeatherDisplay:10.37,2013-05-23 05:59:00,
2013-05-22 23:04:00,57.1,29.0,29.81,WSW,250,13.8,13.8,34,0.00,CLR,,0.00,WeatherDisplay:10.37,2013-05-23 06:04:00,
2013-05-22 23:09:00,56.6,29.2,29.81,West,266,17.3,17.3,35,0.00,CLR,,0.00,WeatherDisplay:10.37,2013-05-23 06:09:00,
2013-05-22 23:14:00,56.9,28.8,29.81,West,264,24.2,24.2,34,0.00,CLR,,0.00,WeatherDisplay:10.37,2013-05-23 06:14:00,
2013-05-22 23:19:00,57.3,28.4,29.81,West,263,19.6,19.6,33,0.00,CLR,,0.00,WeatherDisplay:10.37,2013-05-23 06:19:00,
2013-05-22 23:24:00,57.1,28.2,29.82,WSW,253,15.0,15.0,33,0.00,CLR,,0.00,WeatherDisplay:10.37,2013-05-23 06:24:00,
2013-05-22 23:29:00,57.0,28.1,29.82,West,262,20.7,20.7,33,0.00,CLR,,0.00,WeatherDisplay:10.37,2013-05-23 06:29:00,
2013-05-22 23:34:00,56.7,28.6,29.82,West,265,15.0,15.0,34,0.00,CLR,,0.00,WeatherDisplay:10.37,2013-05-23 06:34:00,
2013-05-22 23:39:00,56.5,28.4,29.82,West,273,19.6,19.6,34,0.00,CLR,,0.00,WeatherDisplay:10.37,2013-05-23 06:39:00,
2013-05-22 23:44:00,56.7,27.9,29.82,West,259,14.0,14.0,33,0.00,CLR,,0.00,WeatherDisplay:10.37,2013-05-23 06:44:00,
2013-05-22 23:49:00,56.5,28.4,29.82,WSW,241,17.3,17.3,34,0.00,CLR,,0.00,WeatherDisplay:10.37,2013-05-23 06:49:00,
2013-05-22 23:54:00,56.3,28.3,29.82,WSW,252,17.3,17.3,34,0.00,CLR,,0.00,WeatherDisplay:10.37,2013-05-23 06:54:00,
2013-05-22 23:59:00,56.1,28.1,29.82,WSW,256,12.7,12.7,34,0.00,CLR,,0.00,WeatherDisplay:10.37,2013-05-23 06:59:00,